Location: Boiro
(42.6475°N, 8.8834°W)
Time: 17:40:12
(UTC+01:00)

Tiros 1 despin weight - Pass Details

Date: 30 November 2021
Orbit: 592 x 641 km, 48.2° (Epoch: 25 January)

Event Time Altitude Azimuth Distance (km) Brightness Sun altitude
Rises 20:20:30 0° 294° (WNW) 2,827 ? -24.6°
Reaches altitude 10° 20:22:49 10° 298° (WNW) 1,926 ? -25.1°
Enters shadow 20:26:13 47° 329° (NNW) 797 ? -25.7°
